星链-4434 (STARLINK-4434 )

导读 | 星芒AI

STARLINK-4434 是 SpaceX Starlink 卫星互联网项目中的第 4434 颗卫星。该卫星属于低轨卫星群,旨在为全球用户提供高速互联网服务。它运行在约 550 公里的轨道高度,采用先进通信技术,支持宽带接入。Starlink 项目致力于改善偏远地区网络覆盖,推动全球数字连接。STARLINK-4434 的发射和运行有助于增强系统冗余与服务质量。

基本信息
目录编号:
53501
目录名称:
STARLINK-4434
国际标识:
2022-099AN
轨道中心:
EARTH
卫星名称:
星链-4434
卫星全名:
星链-4434 (STARLINK-4434 )
卫星状态:
在轨 (已飞行1227 天)
发射日期:
2022-08-12 UTC
国别 :
美国 (US)
星等 :
--
轨道信息
数据来源 国际轨道数据
星历时间: 2025-12-21T05:17:33+0800
9小时前
查看轨道信息
半长轴: 6941.164km
偏心率: 0.0001297
轨道倾角: 97.606°
近地点辐角 166.931°
升交点赤经 113.073°
平近点角 193.195°
近地点: 562.126km
远地点: 563.928km
周期: 95.920分钟
每日圈数: 15.012547
详细信息
固有亮度:
5
最大亮度:
2.5
卫星平台:
Starlink v1.5
覆盖范围:
全球
运营商:
太空探索技术公司
运营商所在国:
美国
制造商(研发单位):
太空探索技术公司
制造商所在国:
美国
使用方式:
暂无
卫星简介
星链(Starlink)计划是由太空探索技术公司(SpaceX)提出的一个巨型低轨卫星互联网星座项目,计划在2019年至2024年间在太空搭建由约1.2万颗卫星组成的“星链”网络,其中1584颗将部署在地球上空550千米处的近地轨道,并从2020年开始工作。该卫星仍在工作。
2D轨道图
3D轨道图
轨道高度分析图
轨道倾角分析图
轨道综合分析图
查看轨道综合分析图